Home > Weather > Walvis Bay > Past weeks

Flag for Namibia Past Weather in Walvis Bay, Namibia — Yesterday and Last 2 Weeks

Now
84 °F

Pleasantly warm.


Feels Like: 81 °F
Forecast: 64 / 74 °F
Wind: 5 mph from West

Location: Walvis Bay

Current Time: Jun 26, 2016 at 6:14:54 PM

Latest Report: Jun 26, 2016 at 5:00 PM


Visibility: N/A

Pressure: 30.09 "Hg

Humidity: 15%

Dew Point: 32 °F

Location of Walvis BayLocation

Past Weather in Walvis Bay — Graph

°F

Walvis Bay Temperature Yesterday

Maximum temperature yesterday: 90 °F (at 2:00 PM)
Minimum temperature yesterday: 61 °F (at 12:00 AM)
Average temperature yesterday: 75 °F

High & Low Weather Summary for the Past Weeks

 TemperatureHumidityPressure
High93 °F (Jun 23, 12:00 PM)100% (Jun 15, 3:00 AM)30.24 "Hg (Jun 15, 3:00 AM)
Low43 °F (Jun 20, 4:00 AM)8% (Jun 23, 12:00 PM)30.04 "Hg (Jun 11, 4:00 PM)
Average62 °F61%30.12 "Hg
* Reported Jun 11 4:00 PM — Jun 26 4:00 PM, Walvis Bay, Weather by CustomWeather, © 2016

Note: Actual official high and low records may vary slightly from our data, if they occured in-between our weather recording intervals... More about our weather records

Advertising

Walvis Bay Weather History for the Previous 24 Hours

Scroll right to see more
 ConditionsComfort  
Time TempWeatherWind HumidityBarometerVisibility
4:00 PM
Sun, Jun 26
86 °FSunny.8 mph14%30.09 "Hg10 mi
3:00 PM88 °FPleasantly warm.10 mph13%30.07 "HgN/A
2:00 PM90 °FHot.12 mph13%30.09 "HgN/A
1:00 PM91 °FSunny.13 mph12%30.09 "Hg10 mi
12:00 PM90 °FSunny.17 mph12%30.12 "Hg10 mi
11:00 AM88 °FSunny.24 mph13%30.15 "Hg10 mi
9:00 AM81 °FPleasantly warm.23 mph15%30.15 "HgN/A
8:00 AM72 °FSunny.20 mph22%30.12 "Hg10 mi
7:00 AM64 °FSunny.7 mph28%30.12 "Hg10 mi
6:00 AM64 °FSunny.9 mph30%30.09 "Hg10 mi
5:00 AM66 °FClear.12 mph28%30.09 "Hg10 mi
4:00 AM68 °FMild.6 mph28%30.09 "HgN/A
3:00 AM73 °FMild.5 mph22%30.09 "HgN/A
2:00 AM68 °FMild.6 mph28%30.09 "HgN/A
1:00 AM72 °FMild.15 mph23%30.09 "HgN/A
12:00 AM68 °FMild.9 mph26%30.09 "HgN/A
11:00 PM
Sat, Jun 25
70 °FMild.10 mph25%30.09 "HgN/A
10:00 PM72 °FMild.14 mph23%30.09 "HgN/A
9:00 PM73 °FMild.12 mph22%30.09 "HgN/A
8:00 PM73 °FMild.10 mph22%30.09 "HgN/A
7:00 PM72 °FClear.7 mph25%30.09 "Hg10 mi
6:00 PM77 °FPleasantly warm.6 mph22%30.09 "HgN/A
Weather by CustomWeather, © 2016

See weather overviewHow to use our weather pages